Poplar Bluff, MO

12:48 AM CDT on April 28, 2017 (GMT -0500)
Poplar Bluff Municipal

Weather History for KPOF - August, 2013

Change the Weather History Date:

Friday, August 23, 2013

  Actual Average Record
Temperature  
Mean Temperature 79 °F -  
Max Temperature 90 °F 88 °F 103 °F (1987)
Min Temperature 69 °F 65 °F 51 °F (1920)
Cooling Degree Days 14    
Growing Degree Days 29 (Base 50)    
Moisture  
Dew Point 71 °F    
Average Humidity 82    
Maximum Humidity 100    
Minimum Humidity 52    
Precipitation  
Precipitation 0.00 in - - ()
Sea Level Pressure  
Sea Level Pressure 30.04 in    
Wind  
Wind Speed 1 mph (NE)    
Max Wind Speed 8 mph    
Max Gust Speed -    
Visibility 8 miles    
Events Thunderstorm    
Averages and records for this station are not official NWS values.
T = Trace of Precipitation, MM = Missing Value Source: NWS Daily Summary

Daily Weather History Graph

Daily Weather History Graph

Search for Another Location

Airport or City:

Trip Planner

Search our weather history database for the weather conditions in past years. The results will help you decide how hot, cold, wet, or windy it might be!

Date:

Astronomy

Aug. 23, 2013 Rise Set
Actual Time 6:25 AM CDT 7:41 PM CDT
Civil Twilight 5:58 AM CDT 8:08 PM CDT
Nautical Twilight 5:26 AM CDT 8:40 PM CDT
Astronomical Twilight 4:52 AM CDT 9:14 PM CDT
Moon 9:07 PM CDT (8/23) 9:14 AM CDT (8/23)
Length of Visible Light 14h 10m
Length of Day
13h 16m
Waning Gibbous, 91% of the Moon is Illuminated
Aug 23
Waning Gibbous
Aug 28
Last Quarter
Sep 5
New
Sep 12
First Quarter
Sep 19
Full

Hourly Weather History & Observations

Time (CDT) Temp. Heat Index Dew Point Humidity Pressure Visibility Wind Dir Wind Speed Gust Speed Precip Events Conditions
12:53 AM 71.1 °F - 71.1 °F 100% 30.03 in 5.0 mi Calm Calm - N/A   Clear
1:53 AM 70.0 °F - 70.0 °F 100% 30.02 in 6.0 mi Calm Calm - 0.00 in   Clear
2:53 AM 69.1 °F - 69.1 °F 100% 30.02 in 4.0 mi Calm Calm - N/A   Clear
3:53 AM 69.1 °F - 69.1 °F 100% 30.02 in 6.0 mi Calm Calm - N/A   Clear
4:53 AM 69.1 °F - 69.1 °F 100% 30.03 in 6.0 mi Calm Calm - N/A   Clear
5:53 AM 69.1 °F - 69.1 °F 100% 30.04 in 7.0 mi Calm Calm - N/A   Clear
6:53 AM 69.1 °F - 69.1 °F 100% 30.06 in 5.0 mi Calm Calm - N/A   Clear
7:53 AM 72.0 °F - 71.1 °F 97% 30.06 in 7.0 mi Calm Calm - N/A   Clear
8:53 AM 77.0 °F - 72.0 °F 84% 30.06 in 9.0 mi Calm Calm - N/A   Clear
9:53 AM 80.1 °F 84.5 °F 73.9 °F 81% 30.07 in 10.0 mi Calm Calm - N/A   Clear
10:53 AM 82.9 °F 88.0 °F 72.0 °F 69% 30.07 in 10.0 mi NE 5.8 mph - N/A   Clear
11:53 AM 86.0 °F 92.2 °F 72.0 °F 63% 30.06 in 10.0 mi NE 3.5 mph - N/A   Clear
12:53 PM 88.0 °F 93.8 °F 71.1 °F 57% 30.04 in 10.0 mi NE 4.6 mph - N/A   Clear
1:53 PM 88.0 °F 94.7 °F 72.0 °F 59% 30.04 in 9.0 mi NNE 5.8 mph - N/A   Clear
2:51 PM 87.8 °F 93.8 °F 71.6 °F 58% 30.03 in 9.0 mi NE 4.6 mph - N/A Thunderstorm Clear
2:53 PM 88.0 °F 93.8 °F 71.1 °F 57% 30.01 in 9.0 mi NE 4.6 mph - N/A Thunderstorm Clear
3:06 PM 89.6 °F 94.7 °F 69.8 °F 52% 30.02 in 9.0 mi Calm Calm - N/A   Clear
3:53 PM 87.1 °F 91.3 °F 69.1 °F 55% 30.00 in 9.0 mi Calm Calm - N/A   Clear
4:53 PM 84.0 °F 90.2 °F 73.0 °F 69% 30.00 in 8.0 mi WNW 8.1 mph - N/A   Clear
5:53 PM 84.9 °F 92.1 °F 73.9 °F 69% 30.00 in 9.0 mi NNW 4.6 mph - N/A   Clear
6:27 PM 82.4 °F 90.9 °F 77.0 °F 84% 30.02 in 7.0 mi NE 3.5 mph - N/A Thunderstorm Mostly Cloudy
6:53 PM 79.0 °F - 72.0 °F 79% 30.02 in 9.0 mi SE 6.9 mph - N/A Thunderstorm Scattered Clouds
7:01 PM 78.8 °F - 71.6 °F 78% 30.04 in 9.0 mi SE 6.9 mph - N/A Thunderstorm Partly Cloudy
7:22 PM 77.0 °F - 71.6 °F 83% 30.04 in 8.0 mi Calm Calm - N/A   Partly Cloudy
7:53 PM 77.0 °F - 72.0 °F 84% 30.03 in 9.0 mi Calm Calm - N/A   Scattered Clouds
8:53 PM 73.9 °F - 73.0 °F 97% 30.04 in 5.0 mi Calm Calm - N/A   Clear
9:53 PM 72.0 °F - 72.0 °F 100% 30.05 in 6.0 mi Calm Calm - N/A   Clear
10:53 PM 71.1 °F - 70.0 °F 96% 30.05 in 7.0 mi Calm Calm - N/A   Clear
11:53 PM 71.1 °F - 71.1 °F 100% 30.05 in 6.0 mi Calm Calm - N/A   Clear